Regional Weather Roundup
Issued by NWS

Home | Current Version | Previous Version | Text Only | Print | Product List | Glossary Off
Versions: 1 2 3 4 5 6 7 8 9 10 11 12 13 14 15 16 17 18 19 20 21 22 23 24 25 26 27 28 29 30 31 32 33 34 35 36 37 38 39 40 41 42 43 44 45 46 47 48 49 50

000
ASUS43 KMPX 010201
RWRMN
WEATHER ROUNDUP FOR MINNESOTA
NATIONAL WEATHER SERVICE TWIN CITIES/CHANHASSEN MN
900 PM CDT SAT APR 30 2016


NOTE: "FAIR" INDICATES FEW OR NO CLOUDS BELOW 12,000 FEET WITH NO
SIGNIFICANT WEATHER AND/OR OBSTRUCTIONS TO VISIBILITY. N/A MEANS
CURRENT SKY AND/OR WEATHER CONDITIONS ARE NOT AVAILABLE.

MNZ060>063-068>070-010300-
   Twin Cities Metro

CITY           SKY/WX    TMP DP  RH WIND       PRES   REMARKS
TWIN CITIES    CLOUDY    52  30  43 NE16G29   30.08R
ST PAUL        CLOUDY    51  31  46 NE16G22   30.09R
CRYSTAL        CLOUDY    52  29  41 NE16G24   30.08R
BLAINE         CLOUDY    52  30  43 NE16G22   30.09R
EDEN PRAIRIE   CLOUDY    53  30  41 NE15G24   30.06R
SOUTH ST PAUL  CLOUDY    52  31  45 NE10G21   30.07S
LAKE ELMO      CLOUDY    50  32  50 NE12G17   30.09S
$$
MNZ001>005-007-008-013>017-022>024-027-028-010300-
   Northwest Minnesota

CITY           SKY/WX    TMP DP  RH WIND       PRES   REMARKS
BEMIDJI        PTCLDY    47  29  48 E7        30.21R
HALLOCK        CLEAR     54  25  32 SE8       30.26R
ROSEAU         CLEAR     48  34  57 E8        30.27R
WARROAD        CLEAR     46  34  61 NE6       30.27S
THIEF RVR FALL CLEAR     52  27  37 N10       30.25R
CROOKSTON      CLEAR     52  28  40 NE8       30.24
FOSSTON        CLEAR     48  27  43 NE9       30.22R
DETROIT LAKES  CLOUDY    52  30  43 NE5       30.18R
MOORHEAD       CLOUDY    55  28  35 NE17G23   30.18R
PARK RAPIDS    CLEAR     53  27  36 NE9       30.17R
MAHNOMEN       FAIR      50  30  45 NE13      30.18S
$$
MNZ006-009>011-018-025>026-010300-
   North Central Minnesota

CITY           SKY/WX    TMP DP  RH WIND       PRES   REMARKS
BAUDETTE       CLEAR     49  25  39 NE6       30.25R
FLAG ISLAND    CLEAR     52  27  37 NE5       30.27R
INTL FALLS     CLEAR     50  27  40 NE3       30.25R
WASKISH        CLEAR     48  28  46 NE3       30.24R
BIG FORK       CLEAR     48  27  43 CALM      30.22R
LONGVILLE      CLEAR     46  30  53 E3        30.20R
GRAND RAPIDS   CLEAR     45  27  49 CALM      30.23S
CRANE LAKE     CLEAR     43  28  56 CALM      30.26R
ORR            CLEAR     48  25  40 CALM      30.22R
COOK           CLEAR     45  28  53 CALM      30.25R
WALKER         FAIR      51  31  46 E7        30.19R
$$
MNZ012-019>021-037-010300-
   Northeast Minnesota

CITY           SKY/WX    TMP DP  RH WIND       PRES   REMARKS
DULUTH         CLOUDY    40  26  57 NE13      30.23S
ELY            CLEAR     43  27  52 CALM      30.25R
HIBBING        CLEAR     40  27  59 E5        30.23R
EVELETH        CLEAR     43  28  56 CALM      30.25S
DULUTH HARBOR  CLOUDY    41  34  75 NE21      30.25R
TWO HARBORS    CLOUDY    43  30  61 NE7       30.23S
SILVER BAY     CLOUDY    41  27  56 NE5       30.24S
GRAND MARAIS     N/A     38  30  73 CALM      30.26S
G MARAIS ARPRT CLEAR     37  25  60 N3        30.25S
$$
MNZ029>031-032-039>041-046>048-054>057-064-010300-
   West Central Minnesota

CITY           SKY/WX    TMP DP  RH WIND       PRES   REMARKS
FERGUS FALLS   CLOUDY    54  32  43 E5        30.13R
WHEATON        CLOUDY    54  36  50 E12       30.15R
MORRIS         CLOUDY    52  30  43 E14G20    30.13R
ALEXANDRIA     CLOUDY    48  29  47 E12       30.15R
ELBOW LAKE     FAIR      52  31  45 E13       30.14R
WADENA         PTCLDY    48  30  49 E7        30.16R
GLENWOOD       CLOUDY    48  30  49 NE17      30.14R
APPLETON       PTCLDY    52  32  46 NE12      30.12R
BENSON         MOCLDY    50  27  40 E12G20    30.12R
ORTONVILLE     CLOUDY    50  34  53 E10G16    30.12R
MADISON        CLOUDY    52  34  50 NE16G24   30.10R
WILLMAR        FAIR      52  34  50 NE17G23   30.12R
$$
MNZ033>034-036-042>043-049>051-058-059-010300-
   Central Minnesota

CITY           SKY/WX    TMP DP  RH WIND       PRES   REMARKS
ST CLOUD       CLOUDY    48  28  46 NE13G24   30.13R
SAUK CENTRE    FAIR      48  29  48 NE14      30.14R
PAYNESVILLE    MOCLDY    49  29  46 NE10      30.12R
AITKIN         CLOUDY    46  25  42 NE7       30.19R
PINE RIVER     CLOUDY    48  32  53 E9        30.22R
BRAINERD       CLOUDY    46  27  47 E9G18     30.19R
STAPLES        CLOUDY    48  27  43 E8        30.17R
LONG PRAIRIE   FAIR      46  30  53 NE14G21   30.15R
LITTLE FALLS   PTCLDY    46  28  49 E7        30.17R
LITCHFIELD     CLOUDY    52  34  50 NE17G23   30.10R
BUFFALO        CLOUDY    50  30  46 N18G25    30.11R
MAPLE LAKE     MOCLDY    51  33  49 NE13G22   30.11R
HUTCHINSON     CLOUDY    51  35  53 NE16G22   30.09R
$$
MNZ037-044-045-052-053-010300-
   East Central Minnesota

CITY           SKY/WX    TMP DP  RH WIND       PRES   REMARKS
PRINCETON        N/A     48  30  49 N10G18    30.13S
MORA           PTCLDY    45  28  53 NE9G20    30.17S
CAMBRIDGE      PTCLDY    52  32  46 NE13G22   30.12R
RUSH CITY      PTCLDY    46  26  45 NE17G25   30.14S
MOOSE LAKE     CLOUDY    41  28  60 NE7G18    30.19R
HINCKLEY       FAIR      45  30  57 NE13G18   30.17R
CLOQUET        CLOUDY    41  27  56 NE9G17    30.22S
MCGREGOR       CLOUDY    43  30  61 NE7       30.21S
$$
MNZ071>073-080-081-089-090-097-098-010300-
   Southwest Minnesota

CITY           SKY/WX    TMP DP  RH WIND       PRES   REMARKS
MONTEVIDEO     CLOUDY    52  36  54 E18G25    30.11R
GRANITE FALLS  CLOUDY    54  38  54 NE17G23   30.09R
CANBY          CLOUDY    53  40  59 NE15G22   30.10R
MARSHALL       CLOUDY    47  41  80 E6        30.08R
REDWOOD FALLS  CLOUDY    49  40  71 E3        30.06R
OLIVIA         CLOUDY    50  32  50 NE16G23   30.07R
PIPESTONE      CLOUDY    45  39  81 E18G25    30.03R
WINDOM         LGT RAIN  45  43  93 E17       30.04R
WORTHINGTON    LGT RAIN  42  40  92 NE18G25   30.03R
JACKSON        LGT RAIN  43  41  93 NE18G24   30.03R
TRACY          LGT RAIN  45  43  91 E10       30.06R
SLAYTON        RAIN      43  42  95 NE13G18   30.04S
$$
MNZ065>067-074>077-082>085-091>093-010300-
   South Central Minnesota

CITY           SKY/WX    TMP DP  RH WIND       PRES   REMARKS
MANKATO        CLOUDY    46  39  76 E13       30.06R
NEW ULM        LGT RAIN  46  43  87 E7        30.06R
ST JAMES       LGT RAIN  39  37  93 E12       30.06R
FAIRMONT       CLOUDY    45  34  65 NE16      30.03R
GLENCOE        CLOUDY    51  37  58 NE8       30.07R
FARIBAULT      CLOUDY    45  43  93 E7        30.06R
OWATONNA       LGT RAIN  45  39  81 E9        30.05R
WASECA         RAIN      43  37  81 E13G18    30.05S
ALBERT LEA     CLOUDY    43  43 100 E21       30.02R
$$
MNZ078>079-086>088-094>096-010300-
   Southeast Minnesota

CITY           SKY/WX    TMP DP  RH WIND       PRES   REMARKS
ROCHESTER      LGT RAIN  43  39  86 E18G26    30.03R
RED WING       CLOUDY    52  36  54 SE6       30.06R
STANTON        DRIZZLE   48  40  73 SE7       30.05R
DODGE CENTER   LGT RAIN  41  41 100 E16       30.03R
WINONA         DRIZZLE   45  39  81 E13G22    30.06R
AUSTIN         DRIZZLE   43  37  81 E13G24    30.02R
PRESTON        LGT RAIN  41  38  88 E9G16     30.02R
$$
ABBREVIATIONS USED IN REMARKS
   TC - TEMPERATURES IN CELSIUS
  WCI - WIND CHILL INDEX
   HX - HEAT INDEX
  VSB - VISIBILITY
$$




USA.gov is the U.S. government's official web portal to all federal, state and local government web resources and services.